Satellite: NOAA-10 Catalog number: 16969 Epoch time: 11124.96166952 Element set: 0498 Inclination: 098.6237 deg RA of node: 155.3288 deg Eccentricity: 0.0012232 Arg of perigee: 356.3107 deg Mean anomaly: 003.7979 deg Mean motion: 14.27458320 rev/day Decay rate: 1.10e-06 rev/day^2 Epoch rev: 28148 Checksum: 314
Satellite: NOAA-11 Catalog number: 19531 Epoch time: 11124.78134771 Element set: 0493 Inclination: 098.7513 deg RA of node: 213.0650 deg Eccentricity: 0.0010679 Arg of perigee: 315.5497 deg Mean anomaly: 044.4807 deg Mean motion: 14.14914575 rev/day Decay rate: 1.67e-06 rev/day^2 Epoch rev: 16661 Checksum: 303
Satellite: NOAA-12 Catalog number: 21263 Epoch time: 11124.92586621 Element set: 0996 Inclination: 098.7529 deg RA of node: 142.8449 deg Eccentricity: 0.0011693 Arg of perigee: 316.3883 deg Mean anomaly: 043.6372 deg Mean motion: 14.25707755 rev/day Decay rate: 1.72e-06 rev/day^2 Epoch rev: 03824 Checksum: 318
Satellite: MET-3/5 Catalog number: 21655 Epoch time: 11124.83179607 Element set: 0104 Inclination: 082.5557 deg RA of node: 081.4029 deg Eccentricity: 0.0012109 Arg of perigee: 266.5649 deg Mean anomaly: 093.4096 deg Mean motion: 13.17030559 rev/day Decay rate: 5.1e-07 rev/day^2 Epoch rev: 94801 Checksum: 293
Satellite: MET-2/21 Catalog number: 22782 Epoch time: 11125.73640715 Element set: 87 Inclination: 082.5496 deg RA of node: 356.5632 deg Eccentricity: 0.0021348 Arg of perigee: 215.3376 deg Mean anomaly: 144.6369 deg Mean motion: 13.83657763 rev/day Decay rate: -1.4e-07 rev/day^2 Epoch rev: 89268 Checksum: 325
Satellite: OKEAN-4 Catalog number: 23317 Epoch time: 11125.52365757 Element set: 545 Inclination: 082.5402 deg RA of node: 052.9732 deg Eccentricity: 0.0020143 Arg of perigee: 259.6619 deg Mean anomaly: 100.2325 deg Mean motion: 14.83050052 rev/day Decay rate: 1.030e-05 rev/day^2 Epoch rev: 89422 Checksum: 260
Satellite: NOAA-14 Catalog number: 23455 Epoch time: 11124.93685750 Element set: 0486 Inclination: 098.8530 deg RA of node: 208.0007 deg Eccentricity: 0.0010207 Arg of perigee: 045.7315 deg Mean anomaly: 314.4689 deg Mean motion: 14.13816407 rev/day Decay rate: -1.0e-08 rev/day^2 Epoch rev: 84296 Checksum: 292
Satellite: NOAA-15 Catalog number: 25338 Epoch time: 11124.83974921 Element set: 0802 Inclination: 098.6508 deg RA of node: 111.5822 deg Eccentricity: 0.0009955 Arg of perigee: 214.7448 deg Mean anomaly: 145.3063 deg Mean motion: 14.24909608 rev/day Decay rate: 3.34e-06 rev/day^2 Epoch rev: 67455 Checksum: 315
Satellite: RESURS Catalog number: 25394 Epoch time: 11124.97180556 Element set: 0805 Inclination: 098.2983 deg RA of node: 130.3755 deg Eccentricity: 0.0002006 Arg of perigee: 030.7280 deg Mean anomaly: 329.4018 deg Mean motion: 14.24232059 rev/day Decay rate: 3.7e-07 rev/day^2 Epoch rev: 66615 Checksum: 280
Satellite: FENGYUN1 Catalog number: 25730 Epoch time: 11125.90783689 Element set: 317 Inclination: 098.8174 deg RA of node: 088.0377 deg Eccentricity: 0.0025545 Arg of perigee: 068.3874 deg Mean anomaly: 292.0002 deg Mean motion: 14.08604932 rev/day Decay rate: 4.07e-06 rev/day^2 Epoch rev: 61711 Checksum: 304
Satellite: OKEAN-0 Catalog number: 25860 Epoch time: 11124.98136363 Element set: 0300 Inclination: 097.8800 deg RA of node: 092.6264 deg Eccentricity: 0.0001745 Arg of perigee: 094.5692 deg Mean anomaly: 265.5715 deg Mean motion: 14.73771058 rev/day Decay rate: 4.21e-06 rev/day^2 Epoch rev: 63429 Checksum: 300
Satellite: NOAA-16 Catalog number: 26536 Epoch time: 11124.80007776 Element set: 0284 Inclination: 099.1423 deg RA of node: 154.4545 deg Eccentricity: 0.0011105 Arg of perigee: 150.9425 deg Mean anomaly: 209.2362 deg Mean motion: 14.12612934 rev/day Decay rate: -5.9e-07 rev/day^2 Epoch rev: 54723 Checksum: 281
Satellite: NOAA-17 Catalog number: 27453 Epoch time: 11124.90142894 Element set: 0278 Inclination: 098.3822 deg RA of node: 166.5897 deg Eccentricity: 0.0010716 Arg of perigee: 276.3569 deg Mean anomaly: 083.6357 deg Mean motion: 14.24266632 rev/day Decay rate: 1.21e-06 rev/day^2 Epoch rev: 46049 Checksum: 324
Satellite: NOAA-18 Catalog number: 28654 Epoch time: 11124.92976645 Element set: 0758 Inclination: 098.9922 deg RA of node: 075.9784 deg Eccentricity: 0.0013670 Arg of perigee: 224.7821 deg Mean anomaly: 135.2284 deg Mean motion: 14.11468214 rev/day Decay rate: 2.22e-06 rev/day^2 Epoch rev: 30682 Checksum: 325
Satellite: NOAA-19 Catalog number: 33591 Epoch time: 11124.91747800 Element set: 0950 Inclination: 098.8244 deg RA of node: 065.8047 deg Eccentricity: 0.0015019 Arg of perigee: 097.4244 deg Mean anomaly: 262.8651 deg Mean motion: 14.11159166 rev/day Decay rate: -2.6e-07 rev/day^2 Epoch rev: 11528 Checksum: 303
/EX SB KEPS @ AMSAT $ORB11125.M Orbital Elements 11125.MISC
HR AMSAT ORBITAL ELEMENTS FOR MANNED AND MISCELLANEOUS SATELLITES FROM WA5QGD FORT WORTH,TX May 5, 2011 Send Subscribe/unsubscribe to KEPS at http://www.amsat.org/mailman/listinfo/keps BID: ORB11125.M TO ALL RADIO AMATEURS BT
Satellite: HUBBLE Catalog number: 20580 Epoch time: 11123.84563713 Element set: 758 Inclination: 028.4711 deg RA of node: 306.0920 deg Eccentricity: 0.0003234 Arg of perigee: 008.7594 deg Mean anomaly: 351.3362 deg Mean motion: 15.01330296 rev/day Decay rate: 1.993e-05 rev/day^2 Epoch rev: 95298 Checksum: 284
Satellite: ISS Catalog number: 25544 Epoch time: 11126.07665311 Element set: 304 Inclination: 051.6459 deg RA of node: 016.9971 deg Eccentricity: 0.0002718 Arg of perigee: 218.8539 deg Mean anomaly: 244.0236 deg Mean motion: 15.74499380 rev/day Decay rate: 2.7365e-04 rev/day^2 Epoch rev: 71427 Checksum: 306
Satellite: CO-58 Catalog number: 28895 Epoch time: 11125.57713461 Element set: 865 Inclination: 097.9709 deg RA of node: 003.5993 deg Eccentricity: 0.0017655 Arg of perigee: 358.4736 deg Mean anomaly: 001.6373 deg Mean motion: 14.60085230 rev/day Decay rate: 5.46e-06 rev/day^2 Epoch rev: 29402 Checksum: 329
Satellite: FALCON Catalog number: 30776 Epoch time: 11124.71249023 Element set: 78 Inclination: 035.4345 deg RA of node: 251.3040 deg Eccentricity: 0.0001061 Arg of perigee: 033.2808 deg Mean anomaly: 326.7976 deg Mean motion: 15.04525874 rev/day Decay rate: 3.560e-05 rev/day^2 Epoch rev: 22849 Checksum: 274
Satellite: MAST Catalog number: 31126 Epoch time: 11125.56818653 Element set: 150 Inclination: 097.8998 deg RA of node: 155.1967 deg Eccentricity: 0.0093599 Arg of perigee: 303.9568 deg Mean anomaly: 055.2754 deg Mean motion: 14.53735252 rev/day Decay rate: 4.56e-06 rev/day^2 Epoch rev: 21489 Checksum: 337
Satellite: CAPE1 Catalog number: 31130 Epoch time: 11124.96350307 Element set: 0169 Inclination: 097.8998 deg RA of node: 151.4553 deg Eccentricity: 0.0101721 Arg of perigee: 316.2369 deg Mean anomaly: 043.0848 deg Mean motion: 14.52373819 rev/day Decay rate: 8.06e-06 rev/day^2 Epoch rev: 21436 Checksum: 292
Satellite: COMPASS Catalog number: 32787 Epoch time: 11125.68628627 Element set: 977 Inclination: 097.8498 deg RA of node: 190.2883 deg Eccentricity: 0.0014841 Arg of perigee: 318.2483 deg Mean anomaly: 041.7582 deg Mean motion: 14.82363274 rev/day Decay rate: 2.011e-05 rev/day^2 Epoch rev: 16326 Checksum: 325
Satellite: AAUSAT2 Catalog number: 32788 Epoch time: 11124.71036763 Element set: 0970 Inclination: 097.8505 deg RA of node: 189.5405 deg Eccentricity: 0.0014424 Arg of perigee: 322.3422 deg Mean anomaly: 037.6807 deg Mean motion: 14.82540846 rev/day Decay rate: 2.106e-05 rev/day^2 Epoch rev: 16313 Checksum: 291
Satellite: DO-64 Catalog number: 32789 Epoch time: 11124.86811465 Element set: 0986 Inclination: 097.8603 deg RA of node: 190.6185 deg Eccentricity: 0.0014308 Arg of perigee: 319.4069 deg Mean anomaly: 040.6045 deg Mean motion: 14.82962602 rev/day Decay rate: 3.162e-05 rev/day^2 Epoch rev: 16316 Checksum: 318
Satellite: CO-66 Catalog number: 32791 Epoch time: 11125.22161637 Element set: 970 Inclination: 097.8503 deg RA of node: 189.7866 deg Eccentricity: 0.0015414 Arg of perigee: 319.0621 deg Mean anomaly: 040.9390 deg Mean motion: 14.82065253 rev/day Decay rate: 1.763e-05 rev/day^2 Epoch rev: 16314 Checksum: 304
Satellite: RS-30 Catalog number: 32953 Epoch time: 11125.72988548 Element set: 700 Inclination: 082.5042 deg RA of node: 189.1151 deg Eccentricity: 0.0020387 Arg of perigee: 118.1866 deg Mean anomaly: 242.1276 deg Mean motion: 12.43012320 rev/day Decay rate: 1.0e-07 rev/day^2 Epoch rev: 13381 Checksum: 261
Satellite: TACSAT-3 Catalog number: 35001 Epoch time: 11125.29870189 Element set: 582 Inclination: 040.4531 deg RA of node: 072.9951 deg Eccentricity: 0.0024522 Arg of perigee: 251.8917 deg Mean anomaly: 107.9228 deg Mean motion: 15.47774442 rev/day Decay rate: 2.5306e-04 rev/day^2 Epoch rev: 11043 Checksum: 286
Satellite: PHARMSAT Catalog number: 35002 Epoch time: 11125.25695736 Element set: 541 Inclination: 040.4640 deg RA of node: 070.8088 deg Eccentricity: 0.0025463 Arg of perigee: 259.8646 deg Mean anomaly: 099.9290 deg Mean motion: 15.47569928 rev/day Decay rate: 2.2041e-04 rev/day^2 Epoch rev: 11045 Checksum: 303
Satellite: HAWKSAT1 Catalog number: 35003 Epoch time: 11125.86704247 Element set: 606 Inclination: 040.4542 deg RA of node: 044.1616 deg Eccentricity: 0.0024023 Arg of perigee: 284.9818 deg Mean anomaly: 074.8078 deg Mean motion: 15.60778733 rev/day Decay rate: 8.4815e-04 rev/day^2 Epoch rev: 11080 Checksum: 288
Satellite: CP6 Catalog number: 35004 Epoch time: 11125.85371899 Element set: 610 Inclination: 040.4566 deg RA of node: 037.6910 deg Eccentricity: 0.0023331 Arg of perigee: 287.1272 deg Mean anomaly: 072.5434 deg Mean motion: 15.65415678 rev/day Decay rate: 1.14009e-03 rev/day^2 Epoch rev: 11086 Checksum: 287
